| time (UTC) | temp F | wind direction | speed MPH | gust MPH | rain 1hr in | rain 24hr in | rain mn in | humidity % | barometer mb |
| 20260503192540 | 69 | 98 | 7.0 | 11.0 | 0.00 | 0.00 | 0.00 | 41 | 1021.2 |
| 20260503192042 | 70 | 159 | 2.0 | 9.0 | 0.00 | 0.00 | 0.00 | 41 | 1021.2 |
| 20260503191549 | 69 | 261 | 0.0 | 8.0 | 0.00 | 0.00 | 0.00 | 43 | 1021.2 |
| 20260503191041 | 68 | 198 | 2.0 | 9.0 | 0.00 | 0.00 | 0.00 | 42 | 1021.2 |
| 20260503190540 | 68 | 197 | 2.0 | 9.0 | 0.00 | 0.00 | 0.00 | 43 | 1021.2 |
| 20260503190047 | 68 | 91 | 3.0 | 9.0 | 0.00 | 0.00 | 0.00 | 43 | 1021.2 |
| 20260503185538 | 68 | 244 | 1.0 | 8.0 | 0.00 | 0.00 | 0.00 | 42 | 1021.2 |
| 20260503185039 | 68 | 203 | 4.0 | 10.0 | 0.00 | 0.00 | 0.00 | 40 | 1021.2 |
| 20260503184551 | 68 | 0 | 3.0 | 10.0 | 0.00 | 0.00 | 0.00 | 42 | 1021.2 |
| 20260503184042 | 67 | 193 | 4.0 | 10.0 | 0.00 | 0.00 | 0.00 | 43 | 1021.2 |
| 20260503183539 | 67 | 0 | 5.0 | 11.0 | 0.00 | 0.00 | 0.00 | 43 | 1021.2 |
| 20260503183105 | 68 | 52 | 4.0 | 11.0 | 0.00 | 0.00 | 0.00 | 44 | 1021.2 |
| 20260503182539 | 68 | 226 | 3.0 | 11.0 | 0.00 | 0.00 | 0.00 | 42 | 1021.2 |
| 20260503182039 | 67 | 270 | 1.0 | 9.0 | 0.00 | 0.00 | 0.00 | 44 | 1021.2 |
| 20260503181617 | 67 | 255 | 2.0 | 10.0 | 0.00 | 0.00 | 0.00 | 46 | 1021.2 |
| 20260503181039 | 67 | 0 | 3.0 | 10.0 | 0.00 | 0.00 | 0.00 | 46 | 1021.2 |
| 20260503180539 | 66 | 0 | 5.0 | 11.0 | 0.00 | 0.00 | 0.00 | 46 | 1021.2 |
| 20260503180051 | 66 | 0 | 2.0 | 12.0 | 0.00 | 0.00 | 0.00 | 46 | 1021.2 |
| 20260503175538 | 66 | 159 | 2.0 | 13.0 | 0.00 | 0.00 | 0.00 | 45 | 1021.2 |
| 20260503175040 | 65 | 134 | 4.0 | 13.0 | 0.00 | 0.00 | 0.00 | 46 | 1021.2 |
| 20260503174551 | 65 | 78 | 4.0 | 12.0 | 0.00 | 0.00 | 0.00 | 47 | 1021.2 |
| 20260503174039 | 65 | 46 | 3.0 | 11.0 | 0.00 | 0.00 | 0.00 | 48 | 1021.2 |
| 20260503173539 | 64 | 150 | 6.0 | 11.0 | 0.00 | 0.00 | 0.00 | 47 | 1021.2 |
| 20260503173056 | 63 | 84 | 5.0 | 12.0 | 0.00 | 0.00 | 0.00 | 50 | 1021.2 |
| 20260503172543 | 64 | 104 | 5.0 | 12.0 | 0.00 | 0.00 | 0.00 | 50 | 1021.2 |
| 20260503172043 | 63 | 156 | 5.0 | 10.0 | 0.00 | 0.00 | 0.00 | 50 | 1021.2 |
| 20260503171545 | 63 | 139 | 4.0 | 11.0 | 0.00 | 0.00 | 0.00 | 49 | 1021.2 |
| 20260503171038 | 63 | 139 | 4.0 | 11.0 | 0.00 | 0.00 | 0.00 | 50 | 1021.2 |
| 20260503170538 | 63 | 176 | 5.0 | 9.0 | 0.00 | 0.00 | 0.00 | 50 | 1021.2 |
| 20260503150540 | 59 | 159 | 3.0 | 8.0 | 0.00 | 0.00 | 0.00 | 58 | 1021.2 |
| 20260503131039 | 47 | 0 | 0.0 | 0.0 | 0.00 | 0.00 | 0.00 | 82 | 1021.2 |
| 20260503130539 | 46 | 0 | 0.0 | 0.0 | 0.00 | 0.00 | 0.00 | 82 | 1021.2 |
| 20260503110538 | 44 | 0 | 0.0 | 0.0 | 0.00 | 0.00 | 0.00 | 85 | 1021.2 |
| 20260503100104 | 45 | 0 | 0.0 | 0.0 | 0.00 | 0.00 | 0.00 | 83 | 1021.2 |
| 20260503081540 | 46 | 0 | 0.0 | 1.0 | 0.00 | 0.02 | 0.00 | 77 | 1021.2 |
| 20260503081038 | 46 | 0 | 0.0 | 1.0 | 0.00 | 0.02 | 0.00 | 76 | 1021.2 |
| 20260503080539 | 47 | 0 | 0.0 | 1.0 | 0.00 | 0.02 | 0.00 | 76 | 1021.2 |
| 20260503072539 | 48 | 0 | 0.0 | 5.0 | 0.00 | 0.02 | 0.00 | 74 | 1021.2 |
| 20260503072040 | 48 | 101 | 1.0 | 5.0 | 0.00 | 0.02 | 0.00 | 73 | 1021.2 |
| 20260503071556 | 48 | 121 | 1.0 | 6.0 | 0.00 | 0.02 | 0.00 | 73 | 1021.2 |
| 20260503071039 | 48 | 0 | 1.0 | 7.0 | 0.00 | 0.02 | 0.00 | 74 | 1021.2 |
| 20260503070538 | 48 | 141 | 0.0 | 7.0 | 0.00 | 0.02 | 0.00 | 75 | 1021.2 |
| 20260503070106 | 48 | 0 | 0.0 | 4.0 | 0.00 | 0.02 | 0.00 | 75 | 1021.2 |
| 20260503060112 | 48 | 0 | 0.0 | 1.0 | 0.00 | 0.02 | 0.00 | 74 | 1021.2 |
| 20260503055042 | 48 | 0 | 0.0 | 3.0 | 0.00 | 0.02 | 0.00 | 73 | 1021.2 |
| 20260503054546 | 49 | 0 | 0.0 | 3.0 | 0.00 | 0.02 | 0.00 | 73 | 1021.2 |
| 20260503054038 | 49 | 0 | 0.0 | 8.0 | 0.00 | 0.02 | 0.00 | 72 | 1021.2 |
| 20260503053538 | 49 | 0 | 1.0 | 8.0 | 0.00 | 0.02 | 0.00 | 72 | 1021.2 |
| 20260503053046 | 49 | 57 | 0.0 | 4.0 | 0.00 | 0.02 | 0.00 | 72 | 1021.2 |
| 20260503052538 | 49 | 105 | 1.0 | 5.0 | 0.00 | 0.02 | 0.00 | 72 | 1021.2 |
| 20260503052038 | 49 | 140 | 0.0 | 5.0 | 0.00 | 0.02 | 0.00 | 72 | 1021.2 |
| 20260503051547 | 49 | 0 | 0.0 | 2.0 | 0.00 | 0.02 | 0.00 | 73 | 1021.2 |
| 20260503051039 | 49 | 0 | 0.0 | 4.0 | 0.00 | 0.02 | 0.00 | 72 | 1021.2 |
| 20260503050539 | 49 | 0 | 0.0 | 4.0 | 0.00 | 0.02 | 0.00 | 72 | 1021.2 |
| 20260503050052 | 49 | 0 | 0.0 | 2.0 | 0.00 | 0.02 | 0.00 | 72 | 1021.2 |
| 20260503045539 | 49 | 86 | 0.0 | 5.0 | 0.00 | 0.02 | 0.02 | 72 | 1021.2 |
| 20260503045039 | 49 | 0 | 0.0 | 5.0 | 0.00 | 0.02 | 0.02 | 72 | 1021.2 |
| 20260503044547 | 48 | 0 | 0.0 | 0.0 | 0.00 | 0.02 | 0.02 | 73 | 1021.2 |
| 20260503044042 | 48 | 0 | 0.0 | 0.0 | 0.00 | 0.02 | 0.02 | 72 | 1021.2 |
| 20260503043538 | 49 | 0 | 0.0 | 1.0 | 0.00 | 0.02 | 0.02 | 72 | 1021.2 |
| 20260503043047 | 49 | 0 | 0.0 | 4.0 | 0.00 | 0.02 | 0.02 | 71 | 1021.2 |
| 20260503042538 | 49 | 0 | 0.0 | 4.0 | 0.00 | 0.02 | 0.02 | 71 | 1021.2 |
| 20260503042038 | 50 | 0 | 0.0 | 3.0 | 0.00 | 0.02 | 0.02 | 71 | 1021.2 |
| 20260503041554 | 50 | 0 | 0.0 | 3.0 | 0.00 | 0.02 | 0.02 | 71 | 1021.2 |
| 20260503041043 | 49 | 0 | 0.0 | 0.0 | 0.00 | 0.02 | 0.02 | 71 | 1021.2 |
| 20260503040539 | 49 | 0 | 0.0 | 3.0 | 0.00 | 0.02 | 0.02 | 72 | 1021.2 |
| 20260503040051 | 49 | 0 | 0.0 | 3.0 | 0.00 | 0.02 | 0.02 | 72 | 1021.2 |
| 20260503035538 | 49 | 0 | 0.0 | 3.0 | 0.00 | 0.03 | 0.02 | 72 | 1021.2 |
| 20260503035039 | 49 | 0 | 0.0 | 0.0 | 0.00 | 0.03 | 0.02 | 72 | 1021.2 |
| 20260503034556 | 49 | 0 | 0.0 | 0.0 | 0.00 | 0.03 | 0.02 | 72 | 1021.2 |
| 20260503034042 | 49 | 0 | 0.0 | 0.0 | 0.00 | 0.03 | 0.02 | 72 | 1021.2 |
| 20260503033540 | 49 | 0 | 0.0 | 0.0 | 0.00 | 0.03 | 0.02 | 73 | 1021.2 |
| 20260503033057 | 49 | 0 | 0.0 | 0.0 | 0.00 | 0.03 | 0.02 | 73 | 1021.2 |
| 20260503032543 | 49 | 0 | 0.0 | 0.0 | 0.00 | 0.03 | 0.02 | 72 | 1021.2 |
| 20260503032039 | 49 | 0 | 0.0 | 0.0 | 0.00 | 0.03 | 0.02 | 71 | 1021.2 |
| 20260503031556 | 50 | 0 | 0.0 | 0.0 | 0.00 | 0.03 | 0.02 | 70 | 1021.2 |
| 20260503031038 | 50 | 0 | 0.0 | 0.0 | 0.00 | 0.03 | 0.02 | 70 | 1021.2 |
| 20260503030538 | 50 | 0 | 0.0 | 0.0 | 0.00 | 0.03 | 0.02 | 69 | 1021.2 |
| 20260503030056 | 51 | 0 | 0.0 | 0.0 | 0.00 | 0.03 | 0.02 | 69 | 1021.2 |
| 20260503025538 | 51 | 0 | 0.0 | 3.0 | 0.00 | 0.03 | 0.02 | 68 | 1021.2 |
| 20260503025038 | 51 | 0 | 0.0 | 6.0 | 0.00 | 0.03 | 0.02 | 68 | 1021.2 |
| 20260503024547 | 52 | 0 | 0.0 | 6.0 | 0.00 | 0.03 | 0.02 | 68 | 1021.2 |
| 20260503024039 | 52 | 55 | 0.0 | 5.0 | 0.00 | 0.03 | 0.02 | 67 | 1021.2 |
| 20260503023541 | 52 | 0 | 0.0 | 5.0 | 0.00 | 0.03 | 0.02 | 67 | 1021.2 |
| 20260503023045 | 52 | 0 | 0.0 | 2.0 | 0.00 | 0.03 | 0.02 | 67 | 1021.2 |
| 20260503022540 | 52 | 0 | 0.0 | 2.0 | 0.00 | 0.03 | 0.02 | 67 | 1021.2 |
| 20260503022046 | 52 | 0 | 0.0 | 2.0 | 0.00 | 0.03 | 0.02 | 67 | 1021.2 |
| 20260503021549 | 52 | 0 | 0.0 | 0.0 | 0.00 | 0.03 | 0.02 | 66 | 1021.2 |
| 20260503021039 | 52 | 0 | 0.0 | 0.0 | 0.00 | 0.03 | 0.02 | 66 | 1021.2 |
| 20260503020539 | 53 | 0 | 0.0 | 1.0 | 0.00 | 0.03 | 0.02 | 65 | 1021.2 |
| 20260503020045 | 53 | 0 | 0.0 | 1.0 | 0.00 | 0.03 | 0.02 | 65 | 1021.2 |
| 20260503015538 | 53 | 0 | 0.0 | 3.0 | 0.00 | 0.06 | 0.02 | 64 | 1021.2 |
| 20260503015040 | 54 | 0 | 0.0 | 3.0 | 0.00 | 0.06 | 0.02 | 63 | 1021.2 |
| 20260503014546 | 54 | 54 | 0.0 | 4.0 | 0.00 | 0.06 | 0.02 | 63 | 1021.2 |
| 20260503014039 | 54 | 0 | 1.0 | 6.0 | 0.00 | 0.06 | 0.02 | 62 | 1021.2 |
| 20260503013539 | 54 | 70 | 0.0 | 6.0 | 0.00 | 0.06 | 0.02 | 62 | 1021.2 |
| 20260503013056 | 55 | 0 | 1.0 | 6.0 | 0.00 | 0.06 | 0.02 | 61 | 1021.2 |
| 20260503012541 | 55 | 0 | 0.0 | 6.0 | 0.00 | 0.06 | 0.02 | 60 | 1021.2 |
| 20260503012038 | 55 | 67 | 2.0 | 7.0 | 0.00 | 0.06 | 0.02 | 60 | 1021.2 |
| 20260503011556 | 56 | 76 | 1.0 | 7.0 | 0.00 | 0.06 | 0.02 | 59 | 1021.2 |
| 20260503011040 | 56 | 66 | 1.0 | 4.0 | 0.00 | 0.06 | 0.02 | 58 | 1021.2 |
| 20260503010538 | 57 | 0 | 0.0 | 7.0 | 0.00 | 0.06 | 0.02 | 58 | 1021.2 |
| 20260503010114 | 57 | 0 | 0.0 | 7.0 | 0.00 | 0.06 | 0.02 | 57 | 1021.2 |
| 20260503005539 | 57 | 0 | 2.0 | 7.0 | 0.00 | 0.06 | 0.02 | 57 | 1021.2 |
| 20260503005038 | 57 | 51 | 1.0 | 7.0 | 0.00 | 0.06 | 0.02 | 56 | 1021.2 |
| 20260503004607 | 57 | 0 | 0.0 | 7.0 | 0.00 | 0.06 | 0.02 | 55 | 1021.2 |
| 20260503004038 | 58 | 65 | 1.0 | 7.0 | 0.00 | 0.06 | 0.02 | 55 | 1021.2 |
| 20260503003539 | 58 | 0 | 0.0 | 4.0 | 0.00 | 0.06 | 0.02 | 54 | 1021.2 |
| 20260503003045 | 58 | 0 | 0.0 | 4.0 | 0.00 | 0.06 | 0.02 | 54 | 1021.2 |
| 20260503002537 | 58 | 0 | 0.0 | 2.0 | 0.00 | 0.06 | 0.02 | 53 | 1021.2 |
| 20260503002039 | 58 | 0 | 0.0 | 1.0 | 0.00 | 0.06 | 0.02 | 53 | 1021.2 |
| 20260503001547 | 58 | 0 | 0.0 | 2.0 | 0.00 | 0.06 | 0.02 | 54 | 1021.2 |
| 20260503001039 | 58 | 0 | 0.0 | 2.0 | 0.00 | 0.06 | 0.02 | 53 | 1021.2 |
| 20260503000538 | 58 | 0 | 0.0 | 2.0 | 0.00 | 0.06 | 0.02 | 53 | 1021.2 |
| 20260503000050 | 58 | 0 | 0.0 | 3.0 | 0.00 | 0.06 | 0.02 | 53 | 1021.2 |
| 20260502235538 | 58 | 0 | 0.0 | 4.0 | 0.00 | 0.06 | 0.02 | 53 | 1021.2 |
| 20260502235038 | 58 | 0 | 0.0 | 7.0 | 0.00 | 0.06 | 0.02 | 53 | 1021.2 |
| 20260502234547 | 58 | 0 | 2.0 | 7.0 | 0.00 | 0.06 | 0.02 | 53 | 1021.2 |
| 20260502234040 | 59 | 0 | 0.0 | 7.0 | 0.00 | 0.06 | 0.02 | 52 | 1021.2 |
| 20260502233540 | 58 | 0 | 0.0 | 7.0 | 0.00 | 0.06 | 0.02 | 53 | 1021.2 |
| 20260502233045 | 58 | 0 | 2.0 | 7.0 | 0.00 | 0.06 | 0.02 | 52 | 1021.2 |
| 20260502232540 | 59 | 89 | 1.0 | 6.0 | 0.00 | 0.06 | 0.02 | 53 | 1021.2 |
| 20260502232039 | 59 | 75 | 0.0 | 4.0 | 0.00 | 0.06 | 0.02 | 52 | 1021.2 |
| 20260502231548 | 59 | 0 | 0.0 | 4.0 | 0.00 | 0.06 | 0.02 | 51 | 1021.2 |
| 20260502231039 | 58 | 0 | 0.0 | 2.0 | 0.00 | 0.06 | 0.02 | 52 | 1021.2 |
| 20260502230540 | 58 | 0 | 0.0 | 3.0 | 0.00 | 0.06 | 0.02 | 53 | 1021.2 |
| 20260502230047 | 58 | 0 | 0.0 | 3.0 | 0.00 | 0.06 | 0.02 | 52 | 1021.2 |
| 20260502225538 | 59 | 0 | 0.0 | 3.0 | 0.00 | 0.06 | 0.02 | 52 | 1021.2 |
| 20260502225038 | 59 | 157 | 0.0 | 3.0 | 0.00 | 0.06 | 0.02 | 52 | 1021.2 |
| 20260502224546 | 59 | 0 | 0.0 | 5.0 | 0.00 | 0.06 | 0.02 | 51 | 1021.2 |
| 20260502224038 | 59 | 0 | 0.0 | 5.0 | 0.00 | 0.06 | 0.02 | 51 | 1021.2 |
| 20260502223539 | 59 | 0 | 0.0 | 3.0 | 0.00 | 0.06 | 0.02 | 51 | 1021.2 |
| 20260502223048 | 59 | 0 | 0.0 | 2.0 | 0.00 | 0.06 | 0.02 | 51 | 1021.2 |
| 20260502222542 | 59 | 145 | 0.0 | 4.0 | 0.00 | 0.06 | 0.02 | 51 | 1021.2 |
| 20260502222040 | 58 | 0 | 0.0 | 4.0 | 0.00 | 0.06 | 0.02 | 51 | 1021.2 |
| 20260502221548 | 58 | 97 | 0.0 | 4.0 | 0.00 | 0.06 | 0.02 | 51 | 1021.2 |
| 20260502221038 | 58 | 220 | 0.0 | 3.0 | 0.00 | 0.06 | 0.02 | 51 | 1021.2 |
| 20260502220542 | 59 | 0 | 1.0 | 4.0 | 0.00 | 0.06 | 0.02 | 51 | 1021.2 |
| 20260502220046 | 59 | 0 | 0.0 | 6.0 | 0.00 | 0.06 | 0.02 | 51 | 1021.2 |
| 20260502215540 | 59 | 0 | 1.0 | 6.0 | 0.00 | 0.06 | 0.02 | 52 | 1021.2 |
| 20260502215039 | 59 | 0 | 0.0 | 6.0 | 0.00 | 0.06 | 0.02 | 53 | 1021.2 |
| 20260502214608 | 59 | 105 | 0.0 | 8.0 | 0.00 | 0.06 | 0.02 | 51 | 1021.2 |
| 20260502214039 | 59 | 141 | 0.0 | 8.0 | 0.00 | 0.06 | 0.02 | 51 | 1021.2 |
| 20260502213542 | 59 | 61 | 0.0 | 7.0 | 0.00 | 0.06 | 0.02 | 51 | 1021.2 |
| 20260502213054 | 60 | 0 | 1.0 | 7.0 | 0.00 | 0.06 | 0.02 | 50 | 1021.2 |
| 20260502212539 | 61 | 160 | 1.0 | 5.0 | 0.00 | 0.06 | 0.02 | 49 | 1021.2 |
| 20260502212039 | 61 | 0 | 0.0 | 5.0 | 0.00 | 0.06 | 0.02 | 47 | 1021.2 |
| 20260502211603 | 62 | 161 | 1.0 | 8.0 | 0.00 | 0.06 | 0.02 | 48 | 1021.2 |
| 20260502211039 | 61 | 0 | 1.0 | 10.0 | 0.00 | 0.06 | 0.02 | 47 | 1021.2 |
| 20260502210539 | 61 | 0 | 4.0 | 10.0 | 0.00 | 0.06 | 0.02 | 48 | 1021.2 |
| 20260502210054 | 61 | 215 | 3.0 | 10.0 | 0.00 | 0.06 | 0.02 | 48 | 1021.2 |
| 20260502205538 | 61 | 143 | 3.0 | 9.0 | 0.00 | 0.06 | 0.02 | 48 | 1021.2 |
| 20260502205038 | 61 | 0 | 2.0 | 9.0 | 0.00 | 0.06 | 0.02 | 49 | 1021.2 |
| 20260502204552 | 61 | 0 | 2.0 | 9.0 | 0.00 | 0.06 | 0.02 | 50 | 1021.2 |
| 20260502204039 | 61 | 64 | 1.0 | 9.0 | 0.00 | 0.06 | 0.02 | 48 | 1021.2 |
| 20260502203539 | 60 | 0 | 2.0 | 9.0 | 0.00 | 0.06 | 0.02 | 49 | 1021.2 |
| 20260502203056 | 60 | 124 | 4.0 | 9.0 | 0.00 | 0.06 | 0.02 | 49 | 1021.2 |
| 20260502202539 | 59 | 0 | 0.0 | 7.0 | 0.00 | 0.06 | 0.02 | 48 | 1021.2 |
| 20260502202039 | 60 | 104 | 1.0 | 7.0 | 0.00 | 0.06 | 0.02 | 48 | 1021.2 |
| 20260502201601 | 60 | 165 | 3.0 | 9.0 | 0.00 | 0.06 | 0.02 | 49 | 1021.2 |
| 20260502201040 | 59 | 0 | 1.0 | 9.0 | 0.00 | 0.06 | 0.02 | 50 | 1021.2 |
| 20260502200538 | 59 | 150 | 2.0 | 9.0 | 0.00 | 0.06 | 0.02 | 47 | 1021.2 |
| 20260502200048 | 59 | 121 | 0.0 | 7.0 | 0.00 | 0.06 | 0.02 | 49 | 1021.2 |
| 20260502195539 | 60 | 136 | 0.0 | 9.0 | 0.00 | 0.06 | 0.02 | 49 | 1021.2 |
| 20260502195038 | 59 | 0 | 0.0 | 9.0 | 0.00 | 0.06 | 0.02 | 49 | 1021.2 |
| 20260502194543 | 59 | 211 | 2.0 | 8.0 | 0.00 | 0.06 | 0.02 | 50 | 1021.2 |
| 20260502194040 | 58 | 0 | 1.0 | 8.0 | 0.00 | 0.06 | 0.02 | 50 | 1021.2 |
| 20260502193539 | 58 | 81 | 1.0 | 10.0 | 0.00 | 0.06 | 0.02 | 52 | 1021.2 |
| 20260502193050 | 58 | 160 | 1.0 | 10.0 | 0.00 | 0.06 | 0.02 | 50 | 1021.2 |